Location: Saratoga Springs
(43.0831°N, 73.7850°W)
Time: 05:12:26
(UTC-04:00)

Vanguard 2 - Pass Details

Date: 24 April 2024
Orbit: 553 x 2914 km, 32.9° (Epoch: 17 May)

Event Time Altitude Azimuth Distance (km) Brightness Sun altitude
Rises 08:25:42 0° 278° (W) 6,757 11.8 25.7°
Reaches altitude 10° 08:31:52 10° 265° (W) 5,717 11.5 26.9°
Maximum altitude 08:42:57 21° 225° (SW) 4,487 11.3 28.9°
Drops below altitude 10° 08:52:26 10° 183° (S) 4,774 11.8 30.6°
Sets 08:57:00 0° 168° (SSE) 5,394 12.1 31.4°
